{"data":{"norad_id":56835,"epoch":"2026-05-25T01:02:26.932992Z","epoch_age_seconds":78198,"freshness":"FRESH","line1":"1 56835U 23079N   26145.04336728  .00061978  00000+0  17415-2 0  9999","line2":"2 56835  42.9944  29.9645 0010793 231.1529 128.8363 15.35628859164632","mean_motion":15.35628859,"eccentricity":0.0010793,"inclination_deg":42.9944,"raan_deg":29.9645,"arg_perigee_deg":231.1529,"mean_anomaly_deg":128.8363,"bstar":0.0017415,"rev_number":16463,"period_min":93.772658123769,"perigee_km":451.67386872798,"apogee_km":466.43262759766,"semimajor_km":6837.1902481628,"source":"CELESTRAK","updated_at":"2026-05-25T13:38:18.163866Z"}}